Powrót do katalogu

STARLINK-32532

AktywnyŁącznośćVLEO
NORAD 62156·PAYLOAD·🇺🇸 United States

Wystrzelony Nov 30, 2024 z Cape Canaveral Space Force Station

Loading…

Następne Przeloty (najbliższe 24 godziny)

TLE

ŚwieżeSource: CelesTrak SupGP

Epoka: Sep 15, 2026, 02:11 UTC

1 62156C 24224T   26258.09145833 -.00032758  00000+0 -11867-2 0  2589
2 62156  43.0014 168.3272 0001315 275.2431 247.8380 15.27589502    14

Śledź STARLINK-32532 w czasie rzeczywistym z AllMySat

Download on the App Store